Theta_e
303 303 303 304 305 306 306 305 305 305 306 307 307 307 307 308 308 309 308 308 309 309 310 310 310 310 310 310 310 310 310 309 309 309 310 309 309 309 309 309 309 310 312 313 312 313 312 312 312 312 313 311 310 308 308 308 306 309 314 313 309 310 307 307 308 303 303 306 303 303 304 304 305 305 305 305 305 305 305 305 304 304 303 303 303 303 303 303
303 304 304 305 306 305 305 304 305 306 306 307 307 308 308 308 308 308 308 308 308 309 310 310 311 311 310 310 310 310 310 310 311 310 310 309 310 309 309 309 309 309 311 313 312 312 312 311 310 311 311 309 307 307 308 307 306 308 314 313 308 309 305 302 304 301 302 305 303 303 304 304 305 304 304 305 305 304 305 305 304 304 304 303 303 303 303 303
304 304 305 305 305 304 305 305 306 306 306 307 307 307 307 308 308 308 308 308 308 309 310 310 311 311 310 310 309 310 310 311 311 310 310 310 310 310 310 309 309 309 310 313 313 312 312 311 310 310 310 308 306 307 307 306 305 303 311 316 307 304 303 301 302 301 303 304 303 304 303 304 304 304 304 305 304 304 305 306 304 303 304 304 304 303 303 303
304 305 305 305 304 305 306 306 306 306 306 307 306 307 307 308 309 310 309 309 309 309 310 311 311 310 310 309 309 309 309 311 311 309 310 310 310 310 310 310 309 309 309 310 311 310 311 310 310 309 308 306 305 306 305 304 306 303 307 313 304 301 304 303 302 303 303 303 304 304 303 304 304 304 304 304 305 306 305 304 304 304 304 304 304 304 303 303
305 305 304 304 305 306 306 306 306 307 307 307 307 307 307 309 310 310 310 309 309 309 309 310 310 310 309 309 309 308 310 314 311 308 310 310 310 310 310 310 309 309 309 309 309 309 309 309 310 309 307 305 304 307 304 302 305 304 302 303 301 301 304 303 302 303 303 303 304 303 304 304 304 304 304 303 305 308 305 303 304 304 304 304 304 304 304 303
304 304 305 305 306 306 307 307 307 307 308 308 307 307 307 309 309 310 310 310 310 309 309 309 309 310 310 310 310 309 311 313 310 309 310 310 310 310 310 310 310 310 309 309 309 309 309 310 310 308 305 302 303 305 304 303 304 306 303 301 302 302 303 303 303 303 303 304 304 304 304 304 304 304 304 303 304 305 303 303 304 304 305 304 305 304 304 303
304 304 305 305 306 306 307 307 307 307 308 308 308 308 308 308 309 309 309 310 310 310 310 310 311 311 311 311 312 311 310 309 308 309 309 309 310 309 310 310 310 310 309 309 309 309 309 310 310 305 304 304 303 302 302 303 303 306 305 301 302 303 303 304 303 304 304 304 304 304 304 303 304 304 303 304 305 304 303 304 304 304 305 305 305 305 304 303
304 305 305 305 306 306 306 307 307 308 308 308 308 308 308 309 309 309 309 309 310 311 311 311 312 311 311 311 312 312 310 308 309 309 309 309 310 309 310 309 309 309 309 309 309 310 309 309 309 306 304 304 304 302 302 304 303 304 305 302 302 303 303 304 304 304 304 304 305 304 304 303 303 303 303 304 305 304 303 304 304 304 305 305 305 305 304 303
305 305 305 305 306 306 306 307 307 308 308 308 309 309 309 309 309 309 309 310 310 311 311 311 311 311 311 310 312 312 309 308 309 309 309 309 309 309 310 310 310 310 310 310 309 310 310 309 308 308 306 303 304 302 302 306 305 303 303 302 303 303 303 304 304 305 304 305 305 304 303 303 303 303 305 306 305 304 303 303 304 305 305 305 305 305 304 303
305 305 306 305 306 306 306 307 307 307 308 309 309 309 309 309 310 310 311 310 310 310 311 312 312 312 311 311 312 312 309 308 309 309 308 308 309 309 310 310 310 311 310 310 310 310 310 309 308 308 307 304 304 302 302 306 305 303 302 302 302 303 303 304 304 305 305 304 304 304 304 303 303 304 307 307 304 304 303 303 304 305 305 305 305 305 304 303
305 305 306 306 306 306 306 307 306 307 308 309 310 309 309 309 310 310 310 311 311 312 312 311 312 312 312 312 312 310 309 309 309 309 308 308 310 310 310 309 309 310 310 310 310 309 309 309 308 308 308 305 303 302 302 303 303 302 303 304 302 302 303 304 304 304 304 304 303 303 303 302 302 305 308 306 305 304 303 303 304 305 305 305 305 305 304 304
306 306 306 306 306 306 306 306 306 307 309 309 310 310 309 310 310 310 310 310 311 312 311 311 312 312 313 313 311 309 309 309 309 309 309 309 309 310 309 309 309 309 310 310 309 309 309 309 309 310 308 305 304 304 303 303 304 303 303 305 305 306 305 303 303 303 303 305 303 302 304 306 305 306 307 306 305 305 303 303 304 305 305 305 305 305 304 304
307 308 307 307 307 306 306 306 307 308 309 310 310 310 310 310 310 311 312 311 311 311 311 312 312 312 313 313 309 309 309 309 310 310 309 309 309 310 309 310 310 309 310 310 310 309 309 309 309 309 306 305 304 304 304 303 303 304 303 305 310 313 309 303 302 303 302 304 303 302 309 315 310 306 305 305 306 305 304 303 303 304 305 305 305 304 304 304
309 308 308 307 307 306 306 307 308 310 311 310 310 310 311 311 312 312 312 312 312 312 312 313 313 313 313 311 309 310 310 309 310 310 310 310 310 310 310 310 310 310 310 309 309 309 309 309 309 308 305 306 304 303 308 306 307 307 303 305 312 314 308 303 302 303 304 305 303 303 310 317 313 307 305 305 306 305 305 304 304 304 305 305 305 304 304 304
308 308 308 307 306 306 307 308 309 311 311 310 310 311 311 312 313 313 313 313 313 313 313 313 313 314 312 310 310 311 311 311 311 311 311 311 311 311 311 311 310 310 310 309 309 308 309 309 309 308 304 305 305 309 313 311 312 310 305 310 314 312 309 305 301 301 304 303 302 304 311 316 312 307 305 305 306 305 305 305 305 304 305 305 305 304 304 304
309 307 307 307 306 307 308 309 310 310 310 311 311 312 312 313 313 313 313 313 313 313 313 314 314 314 314 312 311 311 312 312 312 312 312 311 311 311 311 311 311 310 310 310 310 309 310 309 308 306 305 307 310 315 316 315 319 315 312 314 314 311 310 308 303 300 301 302 302 305 309 313 309 305 305 305 305 305 304 305 305 305 305 304 304 304 304 304
309 308 307 306 307 308 309 309 309 310 310 311 311 312 313 314 314 314 313 314 314 313 313 314 313 314 314 312 311 311 311 311 312 313 312 312 312 311 312 312 311 311 310 310 310 310 310 309 308 306 305 304 305 312 316 318 323 320 319 317 310 310 310 310 308 301 300 302 305 305 305 311 309 303 305 306 304 304 304 305 306 305 305 304 304 304 304 304
309 309 309 309 309 310 310 310 310 311 311 311 312 312 313 314 314 314 313 314 314 314 315 314 314 317 314 311 311 310 310 311 311 312 313 312 312 312 312 311 311 311 310 310 309 309 309 306 307 310 309 305 304 313 317 313 314 315 319 317 310 312 311 311 311 303 301 305 306 306 305 310 309 302 304 307 304 304 304 305 306 305 305 305 304 305 304 304
309 309 309 310 310 310 311 311 311 311 312 312 312 312 313 313 313 314 313 314 313 313 314 312 313 317 314 310 310 310 311 311 311 312 312 313 313 312 312 312 312 311 311 312 310 307 307 308 312 316 312 307 304 308 311 308 309 312 313 313 311 314 312 310 311 304 300 305 308 309 309 310 309 305 304 305 304 303 305 305 305 305 306 305 305 304 304 304
310 309 309 309 309 309 310 311 312 312 312 313 313 313 313 313 314 314 312 313 312 310 311 310 310 312 311 310 311 311 311 311 311 310 311 313 313 312 312 311 311 311 310 312 310 304 306 313 314 311 307 305 304 303 303 304 307 309 310 312 310 312 315 312 309 302 298 306 310 308 310 309 308 308 303 303 303 303 304 305 305 306 306 306 305 304 305 304
311 310 309 309 309 310 311 312 312 313 313 313 313 313 313 313 315 314 311 310 310 310 311 311 311 311 310 311 311 311 311 311 311 311 311 311 312 312 311 311 314 314 306 304 307 305 308 313 309 306 303 301 301 300 302 305 307 307 309 312 311 310 315 309 304 303 299 304 311 307 308 310 310 311 304 301 303 304 304 305 305 306 306 306 305 304 304 304
311 311 311 311 311 312 312 312 313 313 313 313 313 314 314 314 314 314 313 311 310 310 311 311 311 312 311 311 311 311 312 311 312 311 311 310 311 312 309 310 316 314 304 304 311 312 314 311 305 303 300 298 299 300 303 308 308 309 309 312 313 310 311 309 304 304 301 303 314 310 306 311 314 313 305 300 302 305 305 305 305 306 305 306 305 305 304 304
311 311 311 311 311 311 311 311 312 312 314 314 314 314 314 313 313 313 313 313 311 310 311 311 311 311 311 311 310 311 311 310 311 310 311 311 310 310 308 309 313 311 307 312 319 321 317 308 303 300 298 301 305 303 304 308 308 309 310 313 314 308 309 313 309 305 302 302 310 308 305 315 318 314 310 303 301 304 304 305 306 305 305 306 305 305 305 305
311 310 309 309 309 308 309 309 309 310 312 313 314 314 313 313 313 313 312 311 311 310 310 310 311 311 311 311 311 311 310 309 309 309 311 311 309 310 308 307 313 312 307 309 313 316 312 304 300 300 301 305 308 306 306 310 310 309 310 311 310 307 307 310 307 304 306 303 303 306 313 325 324 318 317 308 302 305 305 305 306 306 305 306 305 305 305 305
310 310 309 308 308 308 308 308 309 309 309 310 311 312 313 312 311 312 312 313 312 311 311 311 310 310 310 311 312 311 310 309 309 309 310 310 310 311 307 306 312 314 308 307 309 310 308 301 299 304 308 307 308 309 306 307 313 311 308 306 305 305 304 306 305 306 316 314 303 305 318 332 328 321 319 315 311 310 305 304 306 307 307 306 306 306 305 305
308 310 309 309 309 308 309 309 309 309 309 309 308 309 310 310 311 310 315 325 319 309 311 312 310 311 311 310 311 311 313 311 308 309 309 310 310 309 310 308 308 310 308 306 308 308 305 300 299 306 311 311 312 311 303 304 315 313 306 303 303 304 304 306 307 308 318 317 304 305 316 326 331 327 319 315 316 315 308 304 306 306 307 307 307 306 305 305
307 308 309 310 310 310 310 309 309 309 309 309 307 308 306 307 310 308 315 327 318 307 310 313 311 311 311 309 310 312 314 311 309 309 309 310 310 309 314 313 309 308 302 305 315 309 304 305 304 307 312 315 316 311 304 303 312 311 305 303 305 304 304 305 307 310 312 311 308 310 312 314 326 330 318 311 313 315 314 311 307 306 307 307 306 306 306 306
308 307 308 309 309 310 310 308 310 309 308 309 307 307 307 307 309 310 318 320 310 308 311 311 311 311 310 310 310 310 311 310 310 310 308 310 310 308 312 309 309 308 299 310 325 308 302 309 307 308 313 314 310 306 303 303 307 307 302 302 303 302 304 304 307 313 311 310 317 317 308 312 328 330 317 310 311 315 320 320 312 306 307 307 306 307 306 306
308 308 308 308 308 309 309 308 309 307 307 308 306 306 307 306 307 312 321 315 307 309 310 310 312 310 309 310 309 308 308 308 309 309 307 309 310 309 311 305 303 306 301 309 321 307 301 305 303 305 310 309 305 302 300 302 305 302 298 300 302 302 304 304 307 313 313 316 320 314 306 313 329 333 321 312 312 317 322 321 312 306 307 307 306 307 306 306
308 308 308 309 309 309 309 309 309 308 308 307 306 309 307 308 319 321 317 311 308 309 309 311 311 308 310 312 311 308 307 307 307 308 308 307 309 308 307 305 304 309 310 310 312 306 301 302 301 303 305 303 303 301 297 298 300 299 300 302 304 305 304 305 309 311 316 325 321 309 306 310 322 333 326 314 314 318 318 316 309 305 307 307 306 307 306 306
308 308 308 309 309 309 310 310 309 308 308 306 307 310 308 314 330 328 311 307 309 310 311 312 308 308 314 315 312 309 309 307 304 308 313 308 308 308 307 309 309 315 323 317 312 307 303 305 304 301 302 300 301 302 298 297 298 299 304 306 308 314 311 312 319 317 319 329 319 308 307 307 316 328 324 318 317 313 310 311 311 307 307 307 306 307 306 306
308 308 308 309 308 309 310 309 310 308 306 308 306 310 317 318 321 319 311 309 311 311 313 311 307 308 312 313 312 309 310 310 304 307 313 308 307 306 305 309 309 314 321 315 314 314 309 308 305 301 301 299 302 308 305 302 301 304 310 313 320 330 323 322 331 324 323 324 310 305 306 308 316 322 320 322 322 311 303 306 309 306 306 308 307 306 306 306
308 308 308 308 308 309 310 309 309 306 306 309 306 313 329 327 315 312 313 312 309 307 307 307 307 307 311 315 313 307 307 309 307 305 304 305 310 306 302 302 302 310 316 311 316 320 314 311 306 305 304 299 302 312 314 310 308 310 313 315 325 333 326 328 329 319 320 321 308 301 306 315 320 317 317 319 315 308 303 303 306 306 306 307 307 307 307 307
307 308 307 308 309 308 310 309 307 307 307 307 309 315 322 320 312 309 312 313 307 304 304 305 310 311 311 314 310 306 309 309 306 307 308 312 319 314 309 305 300 307 317 315 314 315 317 316 310 306 305 301 301 305 307 307 308 308 305 309 321 323 319 324 326 321 320 321 313 305 309 323 323 314 314 310 305 303 303 304 305 306 306 307 306 307 307 307
307 308 307 308 309 308 309 308 306 308 306 308 321 325 318 317 315 314 317 312 306 308 306 304 313 319 316 314 309 305 309 309 306 310 315 316 316 312 310 308 302 304 313 315 310 309 316 316 308 303 301 300 302 300 299 305 309 305 302 312 319 315 316 316 313 314 313 315 320 313 312 322 319 312 309 304 302 303 303 304 304 305 306 306 306 307 307 307
307 307 306 308 308 308 310 307 307 307 305 315 330 326 319 318 313 312 314 308 307 311 310 310 316 322 318 315 314 310 306 307 308 312 313 310 308 306 306 305 301 301 306 312 310 309 316 316 307 304 302 299 301 299 297 303 308 308 310 315 308 303 314 316 307 305 305 313 323 317 314 320 314 311 313 308 307 307 305 304 304 305 306 305 306 307 307 308
307 307 307 307 307 309 309 306 307 307 306 321 331 318 313 310 304 306 307 303 305 310 315 320 314 313 320 318 317 317 310 306 309 314 313 309 307 307 306 304 300 298 300 305 308 306 310 315 309 305 306 302 299 300 299 298 302 312 317 310 302 301 310 314 312 316 316 319 324 317 316 321 315 315 320 313 312 316 312 306 303 305 306 305 307 308 308 308
306 307 307 307 307 309 309 307 308 307 310 323 329 315 308 306 301 301 302 301 305 309 318 324 311 307 319 321 316 315 312 312 315 317 315 311 308 305 305 305 301 298 297 300 306 304 305 315 312 305 307 304 297 301 306 302 298 305 308 303 304 310 314 314 316 321 321 319 323 320 316 315 315 322 325 315 315 322 320 312 307 306 306 306 307 308 308 308
307 308 307 307 307 308 309 309 308 309 314 322 326 316 306 305 301 299 302 303 305 310 314 317 310 307 313 316 315 312 310 313 315 315 312 311 309 304 302 304 301 299 297 298 305 304 303 313 315 307 303 303 302 305 311 311 302 302 305 302 305 311 312 312 311 312 317 319 320 322 323 322 320 323 325 319 320 322 321 319 312 307 308 308 308 308 308 308
307 308 308 306 307 308 309 309 308 315 322 316 316 313 303 302 302 299 302 303 303 308 312 314 313 313 314 312 310 309 309 312 312 313 312 309 309 306 301 301 301 300 298 298 302 304 304 310 315 314 305 304 309 307 307 310 305 306 310 308 309 307 303 305 306 305 313 320 320 318 323 328 321 317 320 322 324 321 316 314 309 306 308 309 307 308 308 307
306 309 309 307 308 307 308 311 307 309 319 311 305 306 301 301 302 299 301 302 301 303 308 312 313 314 316 314 309 308 311 313 311 312 312 308 309 308 302 298 299 299 300 302 304 304 305 308 313 318 315 311 311 302 298 301 301 303 307 308 311 310 308 315 314 305 306 313 316 315 318 324 318 313 317 318 315 311 306 304 305 306 309 308 307 308 307 307
306 309 309 306 309 307 309 314 301 298 312 311 302 302 302 300 300 300 300 301 301 300 302 306 308 311 314 313 310 309 311 314 313 310 311 308 308 308 301 296 297 298 301 305 304 300 303 309 313 317 315 308 303 296 294 296 296 298 301 302 306 307 312 323 320 312 307 304 306 308 313 323 318 307 308 308 303 302 302 301 303 306 307 307 308 308 307 307
306 307 307 307 309 307 308 313 306 302 307 303 297 298 300 299 298 300 300 300 302 302 304 306 305 308 309 305 307 310 308 312 313 309 310 309 305 302 298 296 297 298 300 304 303 299 302 309 314 320 319 309 301 296 293 293 295 301 302 300 303 305 309 315 313 311 310 306 308 310 314 326 320 300 297 302 300 302 304 303 303 305 306 307 308 307 307 307
306 307 308 307 308 309 309 313 318 316 306 299 298 299 299 298 298 301 302 302 302 302 307 308 303 304 303 299 305 308 304 309 312 307 307 308 303 298 296 297 297 298 301 303 303 301 304 310 314 321 328 323 316 311 306 301 300 305 306 301 302 304 305 309 307 307 311 311 312 316 319 327 321 305 301 303 300 302 305 306 305 305 306 307 307 307 307 307
306 307 307 307 308 308 309 311 318 322 310 304 305 303 301 301 299 300 301 300 300 300 305 306 301 302 301 298 304 305 300 305 310 307 305 305 301 297 296 297 297 298 300 300 299 300 304 308 312 319 326 325 326 325 318 311 306 306 306 301 301 304 306 308 307 309 314 311 308 314 321 321 316 313 312 309 305 306 306 306 306 305 306 306 306 306 307 308
307 308 308 308 307 307 307 304 307 315 313 311 309 305 304 305 301 299 300 300 300 299 301 302 299 302 303 302 309 311 303 301 303 306 309 307 302 297 296 297 297 298 299 298 297 300 304 305 307 317 323 320 321 320 312 307 307 308 308 305 304 304 304 307 310 312 315 310 307 311 315 313 312 311 311 310 309 309 306 304 305 305 305 305 305 306 307 308
306 307 307 308 308 307 307 304 302 307 309 311 310 306 307 308 303 300 299 299 300 299 300 300 299 304 309 308 313 315 307 303 303 306 308 306 301 297 295 297 297 297 298 297 296 301 307 308 305 309 313 311 311 310 305 304 306 307 307 307 306 304 303 306 310 311 310 310 313 313 310 310 311 310 309 308 308 308 305 304 305 305 304 305 306 307 308 309
307 306 303 306 308 307 308 307 303 302 303 306 307 305 307 310 307 306 303 299 298 299 302 305 303 306 311 310 312 313 309 308 310 308 306 304 301 298 298 296 296 297 298 296 296 300 308 309 303 303 308 309 306 304 302 302 303 303 304 305 305 304 303 305 306 307 308 310 313 314 310 309 309 308 308 307 306 306 305 304 305 304 305 306 307 308 309 309
305 306 303 304 306 305 304 304 301 301 303 306 309 307 309 313 310 306 302 300 302 299 300 309 310 308 310 308 310 316 315 311 311 309 308 306 303 302 304 303 299 296 296 297 296 297 304 310 305 301 306 310 306 302 300 301 303 304 303 303 303 303 303 304 304 305 306 307 308 308 307 307 306 306 306 305 305 305 304 304 305 305 306 306 307 307 308 309
304 306 305 305 305 302 301 301 302 306 306 305 308 307 306 312 313 306 300 304 311 304 299 309 314 307 305 306 311 317 315 310 309 309 308 309 307 305 308 310 304 297 296 298 297 295 300 309 305 301 307 312 307 302 302 302 304 304 303 302 301 301 302 302 302 302 303 304 305 304 304 304 303 303 303 303 304 303 302 304 306 307 307 306 306 307 308 309
305 305 304 306 307 303 302 301 301 307 311 308 308 307 306 312 313 307 303 303 307 307 303 306 310 304 300 303 309 312 307 304 307 307 305 307 308 305 305 305 304 302 299 298 298 298 301 306 303 302 311 316 307 304 306 305 303 306 309 308 303 301 302 302 301 301 303 304 304 303 304 306 305 303 304 304 303 302 302 304 306 308 308 306 306 307 308 309
304 305 304 307 307 303 302 302 300 305 312 309 305 304 306 308 305 303 307 305 301 303 303 300 302 307 307 306 308 308 304 303 305 305 303 303 303 302 301 300 301 304 302 298 299 300 301 308 308 305 312 318 307 303 307 307 310 317 320 316 308 302 301 302 301 301 301 303 305 306 308 309 306 304 306 307 304 303 304 305 306 307 308 308 308 308 309 310
Wind_Speed
7 7 8 9 10 10 7 4 2 3 4 4 5 5 4 5 5 3 1 1 3 6 11 14 14 15 16 17 20 20 21 18 13 16 20 21 16 11 12 12 12 9 8 9 10 10 9 10 12 13 12 13 15 14 12 11 10 6 4 6 4 2 3 4 6 5 2 3 4 4 5 2 1 2 2 3 4 5 7 6 4 4 3 3 4 5 8 9
9 10 10 11 9 7 4 3 3 5 6 7 8 6 4 3 2 3 5 5 1 4 8 9 9 10 11 12 14 14 17 16 16 25 25 16 10 9 9 8 10 8 7 8 9 8 8 11 12 13 15 18 15 11 11 12 14 9 4 5 3 4 2 2 5 5 1 4 5 4 4 3 2 2 2 3 4 5 6 7 5 5 3 3 5 6 8 10
11 11 11 9 6 4 3 3 4 6 8 9 8 5 3 1 1 3 4 4 3 7 8 7 6 4 6 7 9 9 12 12 14 24 22 13 10 8 8 7 8 8 6 6 7 5 4 7 7 11 21 22 16 15 15 13 11 8 5 5 1 5 3 2 3 3 3 6 7 5 4 3 2 2 3 3 4 5 6 7 6 5 3 4 5 6 8 9
11 10 8 6 5 4 4 4 5 5 5 4 4 4 3 4 7 9 8 3 3 9 10 7 4 2 4 6 6 5 7 11 17 23 18 13 11 9 9 7 7 8 8 7 6 4 4 5 8 14 23 19 15 19 17 14 9 6 5 4 3 5 4 3 3 4 6 7 7 6 4 2 1 2 3 3 3 5 8 8 7 6 4 4 5 6 7 9
10 8 6 6 5 6 6 8 7 6 5 4 5 5 4 6 11 15 16 14 8 5 9 9 8 7 7 8 7 6 4 5 13 19 15 13 12 11 10 8 7 7 7 8 8 9 8 10 15 18 19 12 12 14 12 13 12 8 5 3 4 5 3 3 4 7 7 5 5 4 2 1 2 3 4 4 4 4 6 5 6 5 4 6 7 7 8 9
8 6 6 6 7 7 9 10 9 8 8 8 9 8 6 7 10 13 15 16 16 12 9 5 2 2 5 6 4 4 3 4 10 16 16 14 12 14 13 9 8 8 7 9 10 11 10 11 15 15 13 10 12 10 8 12 11 7 4 4 5 5 6 5 5 6 4 3 4 1 1 3 4 3 4 7 8 7 6 5 5 4 5 7 8 9 9 10
6 6 6 6 7 7 8 8 7 8 8 9 10 9 7 5 5 5 6 9 11 13 17 18 17 17 18 15 11 14 19 13 12 15 14 14 12 12 15 14 12 10 7 7 6 7 9 14 20 19 13 8 10 10 13 19 18 11 3 3 7 8 9 7 6 5 2 2 2 2 2 3 3 2 6 9 9 7 6 7 7 7 7 8 9 10 10 11
6 6 6 6 6 5 4 4 5 6 7 8 9 9 8 7 6 4 4 4 4 8 12 14 14 13 13 10 14 25 25 16 15 14 12 13 12 9 11 13 13 10 9 10 9 10 13 19 21 18 12 7 9 9 11 18 18 10 3 3 7 8 9 8 6 5 3 1 1 3 3 3 2 4 8 9 6 5 6 8 8 9 10 10 10 11 10 11
5 4 4 4 4 4 2 3 4 6 6 7 7 7 7 8 9 8 7 3 3 5 5 4 3 1 2 1 8 19 16 12 14 14 12 11 12 12 10 10 9 6 9 12 10 8 10 14 13 12 14 12 11 8 5 6 6 4 6 6 7 7 7 7 5 4 2 1 2 3 4 3 2 5 7 6 4 5 6 7 8 10 10 10 10 10 11 11
3 2 2 3 4 5 4 4 5 6 6 6 7 7 7 9 12 13 12 8 5 4 4 7 6 3 2 4 11 12 7 10 14 14 15 12 8 11 15 17 13 6 6 7 8 9 12 18 20 22 23 16 10 9 6 5 8 11 13 12 11 9 6 4 3 2 1 2 3 3 5 4 2 2 4 4 3 5 6 6 8 10 10 10 10 10 10 11
2 1 2 2 3 4 4 3 5 6 5 5 8 8 7 9 11 11 10 10 12 12 14 15 14 12 9 13 22 14 5 10 14 16 18 15 9 10 16 18 16 12 8 12 18 20 22 25 22 16 13 14 13 13 13 14 17 18 15 12 8 7 7 5 2 2 3 2 3 3 5 4 1 1 6 6 4 5 6 7 8 9 10 10 10 10 10 11
2 2 3 3 2 3 2 2 4 5 4 6 8 8 8 7 6 5 6 5 8 7 8 7 8 10 12 21 26 14 8 12 13 16 18 19 19 17 18 16 14 14 9 14 21 18 17 14 8 9 11 15 12 9 13 16 16 12 8 6 5 4 7 7 3 5 4 2 5 4 5 4 2 5 6 6 5 6 7 8 9 10 10 10 10 10 10 11
5 4 3 3 3 2 2 2 3 4 5 6 6 7 8 7 5 5 7 7 6 3 5 4 5 4 7 18 19 10 9 11 12 13 16 21 23 22 22 18 16 16 10 13 17 11 10 4 3 18 21 14 8 9 14 10 9 5 3 4 3 5 5 6 6 6 2 1 4 3 3 5 6 8 6 6 8 7 8 8 8 9 10 9 9 10 10 10
9 6 3 2 1 2 3 3 4 6 6 6 6 7 7 7 7 6 9 12 11 9 9 12 11 8 12 15 11 9 8 9 8 9 14 16 17 19 21 20 19 20 16 18 21 17 14 10 13 23 21 16 15 15 11 4 4 3 2 3 2 2 2 4 6 7 2 2 3 2 1 5 7 6 4 8 11 9 10 9 8 10 10 9 9 10 11 10
11 9 6 4 5 6 5 5 6 7 8 9 8 7 6 6 6 6 8 11 11 10 9 11 10 11 18 15 9 10 8 6 7 8 11 10 11 14 15 15 16 18 19 20 21 18 15 13 17 20 16 17 16 9 4 4 4 3 1 2 3 3 1 5 3 7 4 4 3 3 1 5 7 6 4 6 10 12 13 11 10 10 10 9 9 10 11 11
11 11 9 9 9 8 7 6 6 5 7 9 10 9 8 9 8 9 9 9 11 10 9 10 8 10 14 10 8 10 8 8 9 10 9 7 7 8 9 10 10 13 14 14 14 12 7 8 17 19 12 10 6 4 4 3 3 4 2 1 3 2 1 4 1 5 6 4 3 2 2 4 4 4 5 3 8 12 16 16 13 11 11 10 10 11 12 12
9 11 11 11 10 9 8 7 6 6 7 8 8 7 8 9 8 8 7 7 9 9 11 13 10 12 12 8 7 11 11 10 9 8 8 8 6 4 6 7 9 10 10 9 9 7 6 8 12 11 9 7 3 3 3 3 3 4 3 3 1 0 1 3 2 5 9 3 2 2 2 6 6 8 10 10 10 12 17 19 16 13 13 11 11 12 12 12
6 7 10 11 11 9 9 10 10 11 12 11 9 9 7 5 3 2 1 1 2 3 6 9 6 7 10 9 8 12 14 11 7 5 5 7 7 5 4 4 6 6 5 6 6 7 7 7 7 4 6 6 5 5 2 1 1 1 2 2 1 2 2 3 3 3 9 5 3 3 3 9 11 14 19 17 11 12 17 19 18 16 15 14 13 12 11 12
5 3 6 9 9 9 8 9 10 12 14 15 14 13 10 10 10 10 10 9 8 6 3 10 11 7 4 9 8 10 15 14 12 7 1 2 5 5 5 4 3 2 3 3 7 10 8 6 7 4 4 5 4 4 2 2 4 5 3 3 1 2 4 5 5 2 5 4 4 3 4 9 10 13 18 15 8 11 16 17 18 18 17 15 14 13 12 11
6 2 4 5 5 5 5 6 9 13 14 13 11 8 6 10 11 14 23 27 24 17 9 13 18 13 8 9 7 7 12 15 15 12 4 0 2 4 5 4 3 5 6 1 4 9 8 6 5 1 2 4 5 2 2 3 4 5 4 3 2 2 4 4 4 4 5 3 4 2 3 9 11 11 14 12 8 10 14 16 17 17 16 16 15 14 13 12
6 5 4 4 4 4 5 6 9 10 7 4 2 4 3 2 3 7 19 25 23 21 18 17 17 15 14 14 10 6 7 12 14 14 11 3 4 3 3 3 4 6 6 2 1 4 7 7 2 3 4 2 2 2 4 4 4 4 3 2 0 2 5 4 3 4 7 3 3 3 6 11 11 9 11 10 6 8 11 13 14 14 14 14 14 15 14 13
6 8 9 9 9 8 7 6 5 1 2 3 4 4 1 6 10 12 15 15 16 19 20 19 17 15 14 14 13 8 8 12 14 14 14 8 5 3 4 7 7 3 4 4 2 4 6 4 2 4 3 4 4 3 5 5 4 3 1 1 1 2 4 5 3 4 6 1 3 6 7 11 10 8 10 8 6 7 7 9 11 12 13 13 14 14 14 14
6 10 13 13 14 13 11 8 6 5 4 3 4 9 14 15 15 14 13 12 12 15 17 17 18 17 14 13 13 12 13 14 14 15 15 11 11 10 10 10 6 3 5 6 4 4 4 1 3 2 5 5 5 5 5 4 3 3 3 3 2 3 3 3 3 6 5 0 3 5 4 8 7 6 7 5 4 7 6 9 11 11 14 15 15 15 16 16
5 9 11 11 12 12 10 9 9 10 10 9 10 13 13 12 11 10 9 8 6 10 13 14 16 17 15 13 10 11 16 14 13 17 16 11 9 9 9 7 6 5 5 5 9 9 4 2 1 2 2 4 3 5 5 3 2 3 2 4 1 4 2 3 4 7 5 1 2 4 3 5 4 4 5 4 5 7 6 8 11 10 12 14 14 14 14 14
4 6 6 7 7 6 5 4 5 7 7 5 5 5 6 6 5 5 5 6 3 6 9 8 10 13 14 14 8 4 10 13 15 18 16 12 6 4 6 5 5 3 2 1 9 9 4 1 1 2 4 4 4 4 3 3 2 3 1 3 1 2 3 4 5 6 4 3 3 4 4 5 5 3 6 5 6 7 7 8 10 8 8 10 11 12 11 11
3 6 6 5 5 3 1 3 2 4 5 3 1 1 2 3 3 4 3 5 3 5 7 5 6 9 11 15 9 1 3 7 12 16 15 13 7 4 5 5 5 3 4 2 5 4 2 4 3 4 4 5 5 3 1 3 4 2 1 4 3 2 1 3 5 4 3 1 3 4 4 3 6 5 6 4 6 8 8 9 10 8 6 7 9 9 10 10
1 4 6 7 7 6 5 5 5 5 4 1 2 2 2 3 1 1 3 5 3 3 4 4 4 7 9 14 11 4 1 4 6 13 15 13 9 5 4 3 4 4 2 3 4 2 1 4 6 6 5 5 5 3 0 3 4 1 1 4 4 2 1 1 3 2 1 2 3 5 4 1 4 5 5 4 5 8 8 9 9 6 4 6 7 8 9 9
1 2 4 7 8 9 9 8 8 7 4 3 3 2 1 0 1 1 4 4 2 2 3 3 3 5 6 9 13 9 4 4 3 8 12 11 10 9 7 3 3 3 1 4 3 0 1 2 3 4 5 4 2 1 1 4 2 2 3 4 1 2 2 2 3 1 2 1 3 6 5 1 5 6 5 5 4 7 7 7 7 6 5 5 7 7 8 9
2 1 2 4 6 8 8 8 8 7 5 3 2 2 2 1 1 2 5 2 2 2 2 3 2 5 7 4 11 13 9 8 5 6 9 9 9 9 9 6 7 7 4 5 5 2 1 1 0 3 4 2 1 1 2 4 0 1 5 3 2 3 3 2 3 1 2 3 2 6 5 2 4 6 4 3 2 6 7 6 7 7 6 6 7 8 8 9
3 2 2 3 4 5 6 6 6 5 3 2 2 2 3 2 3 5 3 1 1 1 2 4 3 7 9 3 7 12 8 7 8 7 7 9 10 10 10 6 6 6 5 8 6 1 1 2 0 2 2 1 2 1 1 2 1 3 4 3 3 3 2 2 2 2 4 3 4 5 3 2 3 5 3 2 3 5 4 4 7 7 7 6 6 8 9 10
4 3 4 4 4 4 5 5 5 4 3 3 4 4 4 2 4 5 1 2 0 2 3 4 3 6 7 3 3 9 6 7 11 9 6 7 9 10 8 4 3 4 4 6 5 2 1 2 1 1 1 0 2 2 2 1 2 3 2 2 2 2 2 2 5 4 4 3 5 4 2 1 2 5 5 5 6 6 5 4 5 7 8 7 7 8 10 12
5 4 5 5 4 4 4 3 3 4 4 5 6 3 3 2 2 2 2 2 1 1 1 2 3 4 5 3 3 5 3 5 9 8 4 3 5 6 5 1 0 3 3 3 3 3 2 1 2 1 1 3 3 2 3 2 2 3 3 3 3 3 4 3 4 3 0 4 2 2 1 1 4 8 6 7 7 7 8 10 8 8 9 9 9 10 12 13
5 5 5 5 4 4 3 1 3 5 5 6 6 2 5 4 1 3 2 2 1 2 1 1 2 2 1 3 4 4 2 2 6 5 1 1 4 3 2 1 1 1 1 0 1 3 2 2 3 1 1 4 4 2 2 2 2 3 2 3 3 3 4 2 3 2 3 4 1 1 2 2 4 6 7 9 8 7 9 12 12 11 11 11 11 12 13 13
6 5 6 6 5 4 2 1 3 5 6 6 4 3 5 1 3 2 2 3 1 2 1 1 3 3 3 3 2 3 1 1 3 3 2 3 4 3 3 3 4 3 2 2 2 2 2 1 3 2 2 5 4 1 1 0 2 2 2 3 4 4 3 1 3 2 3 5 3 3 2 2 2 3 5 9 9 9 9 10 12 14 13 13 13 13 13 12
6 6 7 8 7 5 2 2 3 5 6 5 4 5 3 4 3 2 3 4 1 1 1 1 3 5 4 3 2 1 1 1 2 4 4 4 2 1 2 4 4 3 2 2 0 1 2 2 2 2 2 2 2 1 1 2 1 1 1 3 3 2 4 2 2 4 2 3 4 2 2 5 4 4 5 6 9 10 9 9 11 14 15 14 15 14 12 12
6 5 6 9 7 4 2 2 4 5 6 4 5 3 3 4 2 3 2 1 3 3 2 2 4 4 2 3 3 3 1 1 2 3 3 3 2 1 0 2 3 3 2 2 1 0 2 1 2 3 2 2 2 2 0 1 1 1 2 2 1 3 5 4 1 0 3 1 4 2 3 6 4 3 5 6 7 9 9 10 12 15 16 15 16 15 12 12
6 5 5 8 8 5 2 1 4 5 4 4 5 2 4 2 1 2 0 1 2 3 5 2 1 2 1 1 2 4 2 1 2 3 1 1 1 2 0 1 1 1 1 2 2 1 1 2 2 1 0 1 1 1 1 1 0 2 3 2 2 3 4 4 1 3 5 1 4 3 3 6 3 1 5 7 6 8 8 9 12 15 17 18 17 14 12 13
7 5 5 6 7 5 2 1 4 4 2 4 3 2 2 1 1 1 0 1 2 3 5 3 1 0 2 2 1 4 3 2 2 3 1 1 1 2 2 1 1 1 2 1 1 1 1 1 3 1 2 2 1 1 2 4 3 3 5 3 2 2 1 2 2 1 3 2 5 5 4 4 3 3 4 3 4 7 7 6 7 13 18 19 17 14 12 13
7 5 3 5 6 5 3 0 3 3 3 4 2 2 1 1 1 1 1 0 1 2 2 3 1 1 2 3 1 2 2 1 1 2 1 0 1 1 1 0 1 1 4 2 2 0 1 1 3 2 1 2 2 2 1 3 3 3 3 2 1 3 2 1 2 1 1 1 3 5 5 3 5 6 5 6 8 7 7 5 6 13 17 17 16 14 13 14
7 4 2 5 7 5 3 1 2 2 3 2 3 3 0 1 2 2 2 1 1 1 1 3 3 2 3 3 2 1 1 1 2 2 0 0 1 1 1 1 1 1 3 2 2 1 2 1 2 4 2 1 1 1 2 2 0 1 2 2 1 2 2 1 1 2 2 2 1 2 5 6 6 5 7 9 8 7 8 7 8 14 16 15 16 15 15 17
5 3 2 4 7 6 2 3 5 5 4 2 1 1 0 1 3 3 2 2 2 1 2 4 4 3 3 2 1 2 1 2 1 1 0 1 1 0 0 1 1 0 1 2 3 1 1 1 1 3 3 1 2 1 1 1 1 1 0 1 2 2 3 2 2 2 2 2 3 2 3 9 7 4 7 8 6 7 9 8 11 16 16 15 17 17 18 20
3 2 3 5 7 5 1 4 6 5 4 3 2 1 1 2 3 3 2 2 2 2 2 3 3 2 3 2 1 2 2 2 1 1 1 2 1 1 1 2 1 1 2 1 1 1 1 3 1 3 3 2 3 2 1 1 1 3 0 1 2 3 3 4 1 3 1 2 1 3 1 9 7 3 6 7 7 8 10 10 14 19 18 16 17 18 21 23
3 4 4 5 7 4 2 3 4 4 3 2 2 2 2 2 2 2 2 1 1 1 2 2 1 2 1 1 2 2 1 2 3 2 1 2 0 1 2 2 1 1 2 1 1 1 1 3 2 4 4 2 3 2 1 1 2 2 1 1 2 1 1 4 3 2 3 3 2 3 2 8 6 3 6 9 10 11 12 13 17 19 19 18 20 23 24 24
5 5 4 4 6 3 2 1 1 1 1 1 2 2 2 2 1 2 1 0 1 1 1 1 1 2 1 1 3 2 1 1 2 1 1 3 1 1 2 2 1 1 1 1 2 2 1 1 2 3 5 6 6 5 4 3 0 2 2 1 2 2 5 3 2 3 0 4 6 4 4 8 5 4 4 7 8 11 15 16 17 19 21 23 25 26 26 25
6 4 3 3 6 2 2 3 4 4 2 1 3 1 1 3 2 2 1 2 2 1 2 2 2 3 3 2 4 2 2 1 1 1 1 1 0 1 2 1 1 1 2 1 3 3 2 1 2 3 2 2 3 3 3 2 1 2 1 2 3 4 6 3 1 3 2 4 5 5 6 8 7 6 7 7 6 10 17 20 20 21 23 25 27 28 28 27
3 2 2 3 5 5 5 4 5 6 5 4 3 1 1 2 1 1 3 2 2 2 3 2 3 4 3 2 3 3 2 2 1 1 1 1 1 0 1 2 2 3 4 3 2 3 2 1 2 4 5 5 5 5 3 2 1 3 3 4 5 5 4 4 4 3 5 3 3 8 10 12 17 13 11 11 8 8 14 20 22 23 25 27 30 32 31 27
2 1 2 2 4 6 8 7 5 5 6 5 3 2 3 2 0 1 1 0 1 2 2 2 2 2 2 3 3 1 1 2 2 0 2 2 1 1 1 2 3 3 4 3 1 3 3 1 2 4 6 6 5 5 3 1 4 6 5 5 7 6 5 6 6 6 5 4 5 9 7 9 17 15 12 15 13 10 14 21 26 27 30 33 34 33 31 26
2 1 1 1 1 1 4 5 5 7 6 4 2 2 4 3 2 2 2 1 1 3 2 1 2 4 5 6 4 2 1 2 2 2 1 1 1 1 0 1 2 3 3 2 0 3 4 2 3 2 5 8 7 6 4 3 5 6 6 7 7 8 9 11 12 8 8 6 11 6 3 9 16 15 14 18 19 16 21 30 34 34 34 35 34 31 29 27
3 2 2 1 1 2 1 2 4 8 6 4 2 2 4 5 5 4 2 3 1 2 3 2 6 6 6 5 4 4 3 2 1 3 3 3 2 2 1 1 2 2 2 2 1 2 3 2 2 2 4 8 7 6 3 4 5 6 9 11 10 11 14 15 13 8 9 13 17 13 12 16 19 18 18 26 31 29 30 36 37 35 34 31 30 30 30 29
3 2 1 2 2 4 4 3 4 5 4 3 1 2 4 7 7 4 3 5 2 1 4 5 5 4 5 4 5 3 6 6 2 2 5 5 1 3 3 2 4 2 1 1 1 1 1 2 1 3 3 7 5 5 3 4 6 8 13 13 12 12 12 13 12 8 8 14 17 14 14 17 22 23 21 29 35 29 27 31 33 33 30 26 27 31 32 31
3 3 1 1 2 3 3 1 3 3 1 0 2 3 3 6 8 6 4 5 6 4 7 8 6 4 3 3 5 6 7 5 3 0 7 6 2 4 3 3 7 6 2 2 1 1 2 1 1 4 3 6 3 5 7 6 6 10 16 13 12 12 8 8 9 8 10 12 11 7 7 12 17 15 13 20 24 20 22 27 29 30 29 26 28 32 34 33
3 2 1 0 1 0 1 1 3 2 2 3 4 5 4 5 8 10 4 4 6 6 6 9 10 6 3 3 8 8 5 4 2 2 5 4 2 4 4 5 8 7 5 4 2 1 3 3 1 2 1 6 5 4 6 8 7 8 11 6 9 10 7 5 6 9 12 11 6 5 9 11 8 6 6 12 16 16 21 25 25 27 31 31 31 34 34 34
Wind_Direction
146 142 138 136 132 132 129 106 66 50 54 72 91 105 127 144 146 147 235 324 94 110 111 101 91 82 73 69 65 61 58 59 76 81 59 36 21 15 21 24 38 70 107 100 99 102 105 107 112 124 128 105 82 74 69 58 47 56 80 71 97 142 136 159 178 185 158 164 192 198 189 175 217 241 270 267 265 273 292 305 301 285 273 294 319 336 341 345
133 131 131 131 130 125 102 60 63 68 82 91 93 100 114 148 215 271 285 287 242 151 135 114 98 82 68 62 54 55 48 46 71 66 48 33 32 28 26 31 35 59 108 112 113 114 106 101 108 127 117 87 64 70 76 52 44 53 94 84 105 190 145 140 181 187 161 149 168 184 191 207 232 255 270 255 274 288 294 296 289 275 274 311 327 334 334 338
127 127 128 127 120 96 62 57 76 86 95 91 85 90 97 95 2 339 311 283 216 176 160 132 116 79 46 38 32 44 36 31 50 42 34 35 43 43 45 51 50 60 89 125 137 137 122 105 107 112 97 79 57 71 69 44 41 38 66 84 176 199 136 69 161 169 160 150 143 145 171 199 230 258 246 237 287 286 266 277 281 277 293 325 328 331 327 332
127 127 127 119 100 73 60 73 88 99 95 74 58 69 91 82 63 53 46 50 182 192 184 169 180 279 338 345 358 15 19 35 29 15 19 36 42 50 56 67 77 74 79 109 135 134 124 119 131 109 89 74 54 65 51 29 50 38 48 104 164 161 111 71 142 139 136 144 135 132 141 145 212 265 243 232 292 280 264 270 269 267 286 308 315 325 325 328
128 129 122 106 87 70 76 90 94 95 82 67 63 74 101 93 75 64 58 58 72 162 198 215 239 267 293 304 308 306 331 29 10 6 21 34 43 54 59 78 94 97 94 98 104 110 121 127 124 97 76 59 42 59 35 29 70 65 39 95 120 138 115 85 133 132 127 138 136 127 123 222 272 281 259 232 225 258 284 281 260 260 276 293 309 323 326 328
128 125 114 99 82 79 91 94 89 85 80 76 73 77 96 103 88 72 58 55 62 80 104 129 148 18 3 354 298 275 85 72 358 12 25 28 46 56 61 77 93 109 114 112 111 113 123 125 111 83 70 61 45 61 41 37 81 95 49 59 82 112 112 110 137 134 132 146 145 154 300 290 281 280 275 251 243 263 290 274 256 269 278 287 306 318 323 326
121 114 106 92 79 87 97 89 79 82 80 76 71 68 81 95 91 64 43 49 58 74 87 96 94 85 74 72 90 92 83 66 21 23 24 27 44 56 65 67 75 91 110 126 126 123 121 110 98 84 82 76 62 76 70 65 81 95 86 63 85 97 100 110 129 124 139 163 170 268 280 297 297 281 288 277 272 280 276 263 262 273 282 289 301 311 316 318
111 106 96 83 76 84 92 78 71 75 75 74 67 64 70 71 70 40 11 29 68 86 91 93 90 93 89 76 80 74 62 41 29 33 26 31 38 50 65 64 70 79 93 107 112 119 112 99 93 82 73 76 92 96 83 72 64 68 110 122 98 94 98 107 114 115 128 153 276 288 281 285 292 286 286 287 294 285 263 264 269 273 281 286 295 305 308 309
101 96 86 73 64 62 64 66 60 59 65 69 61 61 68 70 75 69 52 56 116 111 97 66 25 139 134 281 76 64 43 30 39 39 35 39 42 49 59 66 78 98 98 93 94 104 103 92 90 105 106 102 102 88 68 71 50 67 119 124 110 98 102 111 117 115 119 335 319 290 288 279 292 300 283 281 289 272 267 266 270 276 281 287 294 300 299 304
85 77 66 45 47 55 58 62 49 42 59 67 56 58 76 84 87 81 70 68 96 126 96 57 35 53 153 164 102 74 39 53 53 48 49 49 61 68 63 62 64 87 113 90 78 82 96 100 100 109 107 100 91 62 43 85 118 123 112 105 100 98 94 98 128 90 345 292 319 292 279 268 273 316 268 269 286 271 271 268 270 279 286 294 298 295 295 301
46 19 1 351 27 47 50 51 33 29 52 69 59 64 91 100 94 78 61 69 96 102 83 67 59 72 114 113 93 83 75 75 62 57 58 59 77 78 67 66 62 68 87 95 94 93 100 104 103 100 90 94 92 70 77 106 121 121 110 93 72 85 75 55 124 356 340 264 317 304 282 284 214 219 246 252 277 280 275 270 270 277 288 296 297 296 296 300
18 344 318 307 325 360 22 22 13 28 61 79 71 72 94 112 104 57 28 73 121 101 56 49 68 87 100 84 78 82 86 78 65 61 63 65 68 67 68 73 74 70 72 95 97 100 111 106 89 97 106 115 105 78 102 116 118 115 104 89 12 35 48 23 28 348 333 270 321 323 312 313 235 225 240 239 249 271 276 272 271 273 284 292 292 297 297 301
21 1 321 301 310 338 38 35 26 55 76 89 86 79 88 100 93 58 47 72 123 107 29 45 89 130 99 69 69 85 87 74 70 71 71 68 67 68 70 72 78 78 76 93 90 89 110 105 94 111 114 116 108 114 127 121 108 99 68 90 15 10 14 358 9 349 317 270 325 348 329 296 256 242 238 236 239 258 271 274 274 269 278 287 288 293 296 299
23 14 356 339 32 81 84 67 68 78 78 88 94 89 90 89 82 74 72 78 91 90 73 76 84 104 98 81 72 78 77 67 70 77 73 69 68 70 71 73 76 79 79 84 83 79 91 111 118 107 99 100 111 120 117 71 73 93 46 64 41 57 336 327 9 14 38 295 326 69 264 262 264 270 243 235 236 248 264 268 271 266 272 282 284 288 293 297
28 29 45 76 98 100 89 79 85 82 76 81 87 90 89 86 82 81 82 81 82 81 80 85 90 92 86 79 70 69 70 73 72 67 65 65 68 68 70 72 72 76 81 85 87 87 91 108 104 90 86 100 112 113 72 9 32 50 84 329 345 96 302 305 8 39 38 277 305 88 237 267 269 265 225 232 240 243 258 265 266 265 268 275 280 285 292 300
41 47 70 94 101 99 88 82 84 74 75 85 90 90 89 91 88 85 90 83 76 74 77 84 86 84 78 65 60 64 63 63 56 52 54 52 63 69 69 71 72 77 82 86 91 93 90 95 88 80 79 91 93 73 53 33 13 359 86 141 324 68 9 305 235 20 3 286 296 68 239 280 275 222 193 236 264 250 253 262 263 264 266 270 276 283 293 303
53 62 78 93 96 94 90 88 88 83 90 98 97 98 103 103 93 83 86 78 68 64 70 79 83 76 67 55 52 46 41 43 40 47 57 54 61 82 83 82 85 83 84 85 85 88 84 86 92 80 61 58 36 69 65 360 338 321 23 105 263 229 257 305 255 340 357 342 306 1 228 254 268 258 256 279 292 263 252 259 264 265 265 268 275 282 294 302
57 77 87 90 91 93 95 99 99 98 98 99 99 102 105 105 89 45 30 335 3 35 57 53 64 87 57 36 39 37 38 39 33 42 57 57 59 75 100 115 104 85 81 80 59 58 68 73 93 87 41 38 22 53 105 254 148 216 14 88 331 325 243 264 260 338 8 6 319 336 258 264 276 283 285 294 295 263 255 260 264 267 267 269 273 280 290 298
37 92 114 102 95 92 98 102 103 106 103 101 100 96 96 92 81 66 68 77 66 66 56 29 47 106 64 20 38 46 45 45 37 29 31 62 54 70 89 113 136 78 64 69 25 31 54 61 64 62 13 356 349 37 110 147 128 157 147 127 142 316 267 253 257 312 13 345 293 258 248 279 287 287 294 304 297 258 257 260 262 266 268 271 273 279 283 291
25 67 143 136 109 92 100 111 118 116 106 103 99 89 95 89 76 62 64 70 70 73 80 60 63 82 68 37 47 53 46 47 40 32 25 159 131 106 82 91 110 57 48 50 1 25 56 67 53 71 290 305 279 252 113 94 101 120 111 110 161 253 282 277 270 317 6 340 276 250 269 284 283 279 289 306 298 259 254 255 261 267 272 275 277 280 280 287
38 76 113 127 116 101 112 126 127 118 100 97 53 340 309 48 76 82 71 68 69 70 69 66 66 67 58 47 47 55 56 55 48 39 34 48 162 139 45 66 83 49 18 348 359 26 61 76 54 247 230 266 276 198 126 92 76 83 111 141 183 237 263 275 262 326 6 10 265 340 333 290 281 280 291 308 293 256 254 257 266 276 280 279 280 283 284 290
67 93 103 107 105 104 114 131 135 135 301 285 302 314 122 114 111 107 94 80 69 65 62 61 62 59 54 47 46 54 62 53 43 40 42 60 110 94 53 70 76 61 350 1 53 35 53 76 301 278 197 126 59 80 105 91 87 72 93 135 336 278 278 297 303 339 1 7 272 347 342 290 283 283 289 305 281 261 269 267 273 284 287 289 290 291 290 294
91 107 110 108 104 101 102 104 94 76 71 78 101 113 112 111 105 94 95 96 71 55 52 54 52 48 45 40 40 46 57 49 25 24 36 58 79 70 75 76 69 71 12 22 103 92 66 21 294 235 172 128 50 41 80 86 79 54 52 78 312 317 351 311 316 336 333 271 290 326 320 285 297 304 292 306 294 285 288 277 280 287 293 302 305 300 297 299
117 123 120 113 108 102 95 86 75 71 77 88 104 113 114 109 98 80 81 94 78 46 44 45 41 40 36 28 28 45 57 53 26 19 26 47 72 66 74 76 64 70 25 40 94 96 98 261 264 131 123 115 87 43 64 94 32 358 72 103 310 309 320 260 296 331 325 34 348 335 337 301 319 332 292 307 330 309 299 290 289 293 303 311 317 316 310 306
154 160 147 131 126 114 86 66 65 60 59 82 102 108 131 128 74 33 53 80 64 13 24 34 31 31 26 17 15 52 59 52 32 21 23 35 54 81 82 65 57 84 256 28 81 85 82 311 220 118 47 68 103 54 49 118 49 343 234 142 166 253 264 288 323 345 9 42 358 18 22 305 308 305 266 300 342 311 304 303 292 299 317 320 325 329 324 315
187 199 196 184 184 189 334 340 358 13 17 48 77 69 176 218 334 358 42 69 34 336 2 24 22 24 18 8 6 95 75 40 26 21 26 30 31 111 94 36 51 109 208 177 85 91 62 23 60 102 76 58 69 65 78 125 85 18 229 146 129 133 161 336 350 12 48 348 313 38 69 277 311 304 264 314 337 303 307 305 286 286 311 321 328 333 332 326
217 218 221 223 231 247 276 299 301 317 342 2 342 333 260 263 314 27 30 47 23 325 356 4 9 24 19 10 16 83 106 343 14 21 27 32 33 89 102 8 50 90 165 127 75 54 40 27 34 55 74 59 47 38 289 119 99 12 178 126 115 108 122 17 32 47 329 279 313 25 79 203 297 283 274 328 327 306 310 298 283 263 274 314 329 340 346 343
317 249 239 241 248 257 267 279 286 299 304 276 293 294 240 158 187 5 60 77 337 337 19 6 33 28 15 22 35 63 57 6 35 12 16 35 39 66 84 61 114 119 75 114 118 356 22 18 14 45 61 57 50 301 198 133 85 272 174 134 135 132 141 139 96 71 311 352 327 341 23 72 273 277 312 355 335 307 294 277 271 241 244 303 327 341 352 349
351 316 273 257 257 262 265 273 278 285 290 272 267 235 190 133 196 39 76 121 306 30 47 358 17 355 347 27 36 40 45 35 41 6 15 44 40 61 84 85 113 114 58 79 131 174 74 64 221 94 71 46 240 270 185 158 314 216 147 107 63 79 88 103 99 117 26 38 286 307 356 29 281 285 317 7 313 276 270 267 264 238 241 289 318 338 347 345
350 336 326 295 278 276 268 273 278 269 265 233 181 156 152 122 74 64 67 231 319 359 333 349 334 334 348 28 22 20 37 29 15 13 38 59 53 67 90 92 93 95 48 48 77 144 147 130 173 83 85 212 182 90 358 200 189 135 119 71 65 52 39 60 44 94 64 1 253 267 331 37 305 286 256 219 218 224 239 282 275 247 241 273 314 336 340 337
349 348 344 332 312 299 281 274 267 235 223 195 166 130 125 90 67 93 178 243 80 324 350 15 352 357 17 66 18 1 16 14 7 18 37 43 40 44 60 66 35 47 32 26 37 351 5 76 21 15 106 33 117 93 11 355 114 115 105 78 102 345 5 35 351 36 71 303 253 243 291 108 244 266 245 240 240 217 202 225 255 252 248 267 304 319 323 325
354 350 345 340 324 314 298 270 230 191 188 166 157 143 115 61 24 152 267 328 26 325 27 18 337 25 31 42 27 345 343 4 9 32 52 30 39 30 28 70 10 28 17 351 358 360 1 20 336 287 212 39 74 80 356 352 46 79 66 51 67 360 8 20 338 9 155 260 229 206 278 182 229 243 241 251 253 233 221 224 236 254 258 266 286 299 309 317
353 349 349 345 338 337 328 246 183 171 170 153 154 120 81 83 229 215 278 340 13 321 47 25 344 51 48 25 16 337 352 360 355 29 75 72 68 39 356 84 123 78 60 28 14 15 1 311 349 9 306 14 56 80 1 322 350 40 62 56 75 69 38 351 297 319 289 277 246 229 277 289 273 259 226 227 238 242 244 241 239 245 252 260 274 287 300 313
345 346 352 355 0 355 355 145 165 156 152 150 147 77 73 140 227 188 249 256 254 348 26 34 1 34 54 45 337 307 56 29 338 23 21 31 57 21 340 350 20 66 105 85 67 60 77 304 351 37 327 355 30 79 85 136 6 2 190 118 101 124 118 243 257 242 282 293 301 298 274 206 248 277 219 224 251 267 263 250 240 239 242 252 267 279 292 305
341 344 354 2 6 357 16 127 161 148 150 150 90 69 115 224 231 166 220 238 217 324 348 33 51 54 21 356 329 334 90 312 360 47 27 39 88 36 355 321 349 47 100 66 48 95 90 242 281 360 341 10 21 310 81 91 49 275 184 83 71 146 137 120 188 184 207 313 303 283 236 218 228 271 276 275 285 282 270 256 246 243 243 248 260 273 288 297
335 334 350 0 1 1 36 135 158 142 158 144 71 74 195 218 207 171 185 148 140 150 119 57 60 71 355 318 345 8 38 313 4 44 25 46 144 208 358 275 324 44 93 102 150 343 49 261 287 1 8 53 43 295 342 75 299 355 53 68 121 139 116 106 148 211 75 37 287 291 281 292 314 308 320 339 313 295 284 267 255 250 251 255 259 270 286 292
332 319 331 350 358 6 30 139 148 150 167 112 87 199 221 206 194 191 175 70 141 124 102 107 57 80 199 267 322 325 347 316 348 45 40 16 135 185 183 274 278 43 80 117 153 198 118 263 304 51 152 333 10 314 2 27 24 52 83 146 161 94 88 101 89 356 38 35 285 331 298 297 341 331 329 350 322 298 288 271 267 262 259 259 261 270 288 295
332 318 309 336 355 3 15 121 146 159 141 82 90 224 207 151 232 212 57 55 124 92 86 130 176 58 187 173 283 297 328 330 356 49 80 294 89 164 161 351 278 337 346 63 120 5 72 304 309 155 170 308 347 112 351 354 26 90 124 136 117 100 55 34 60 18 16 332 294 313 300 269 209 227 291 307 254 267 277 282 280 264 259 260 261 270 290 300
329 315 305 339 354 358 2 136 179 164 96 83 151 212 176 189 226 170 164 43 109 102 102 170 171 61 167 168 190 276 340 20 71 58 89 143 60 203 186 67 217 339 352 35 130 251 57 54 292 249 194 319 8 74 275 316 9 62 76 35 30 120 141 31 63 131 212 298 292 320 328 277 228 217 208 217 225 232 251 269 263 253 258 261 257 265 288 301
324 305 290 337 353 356 356 127 167 131 85 102 178 186 255 221 188 156 153 110 98 122 158 180 157 117 186 208 224 221 42 78 133 98 52 143 80 283 340 76 181 335 355 41 99 65 36 65 270 289 320 302 315 43 188 189 152 37 31 3 10 70 109 177 42 77 123 142 181 329 317 278 250 204 190 215 225 214 219 231 249 258 263 260 255 264 282 294
322 312 290 327 351 347 340 75 61 67 93 104 147 154 13 168 157 142 137 119 92 92 134 153 144 143 168 182 224 197 95 61 104 101 222 192 110 356 358 108 160 313 11 48 61 46 47 98 230 298 327 281 242 265 177 156 161 142 151 215 156 105 109 111 337 329 92 120 164 148 286 277 264 202 201 220 224 227 231 234 254 266 266 260 260 270 282 290
315 316 314 329 345 340 20 73 44 52 101 107 81 114 148 140 137 138 135 116 87 79 91 115 113 119 147 141 159 170 124 94 126 89 190 197 149 169 151 121 133 123 110 80 333 238 153 91 77 274 266 242 266 294 108 133 134 125 152 265 120 107 108 114 241 266 110 97 140 110 270 271 262 205 216 242 258 267 265 255 260 269 269 266 271 282 289 292
320 317 312 325 337 342 85 62 23 28 52 81 92 107 124 119 127 147 148 83 75 90 73 83 75 81 145 170 125 141 160 174 168 137 183 212 198 147 155 132 137 119 110 161 259 199 140 67 35 295 294 320 323 343 44 38 86 117 256 193 133 125 98 133 170 171 141 168 150 88 270 266 277 269 237 252 267 274 272 265 264 270 273 276 284 293 296 296
325 313 292 322 338 316 196 185 140 89 349 29 73 72 86 81 82 113 154 145 94 111 107 112 100 93 107 87 98 128 204 170 161 105 154 182 147 108 142 135 146 135 117 181 151 153 202 56 60 5 349 346 345 353 348 344 48 213 239 171 162 119 100 121 132 74 282 211 156 138 247 254 271 313 282 269 280 280 274 272 270 272 278 285 292 298 302 305
332 307 272 321 349 345 173 170 145 141 177 135 98 101 82 67 59 70 115 129 96 92 107 104 113 109 100 78 75 64 28 63 108 20 68 140 152 105 131 135 182 155 134 135 129 136 176 202 118 102 70 301 286 291 288 293 289 252 194 171 197 150 131 159 115 84 252 233 154 167 239 263 275 297 295 282 286 286 283 284 282 279 284 291 297 302 307 310
350 331 311 336 358 36 86 108 118 128 157 154 126 159 139 99 72 70 97 106 90 98 100 100 124 109 83 83 77 47 1 13 41 89 141 191 228 285 140 126 129 143 129 110 99 101 101 236 194 163 184 209 219 232 224 135 209 248 218 195 196 182 153 126 108 166 199 175 198 223 239 276 287 289 293 290 280 271 282 289 291 291 295 299 301 304 307 308
11 6 340 341 352 37 66 64 70 106 147 159 145 159 156 144 324 89 122 158 141 135 97 67 138 150 155 152 120 100 271 347 10 117 181 186 191 254 195 155 136 159 153 136 120 90 89 295 249 189 223 244 246 251 236 158 237 243 235 216 194 187 169 155 187 209 153 120 263 241 208 251 276 284 293 295 292 288 291 294 296 299 302 302 303 305 306 305
18 351 337 340 309 16 47 30 53 92 107 120 118 132 144 152 174 173 174 139 139 171 155 12 252 214 189 173 152 146 178 340 323 219 176 165 178 103 120 205 189 180 171 163 201 100 114 231 233 180 260 273 271 270 251 218 247 246 238 233 205 185 187 200 218 201 151 198 252 251 204 249 270 283 285 283 286 291 293 295 296 298 299 301 304 304 304 304
18 30 52 109 181 157 103 51 104 104 86 70 81 129 158 177 196 210 170 108 27 250 179 218 260 228 193 180 142 139 184 202 258 244 182 149 182 163 135 222 211 192 172 143 25 83 132 225 213 152 285 282 279 290 268 219 258 268 246 236 216 202 203 213 229 209 191 235 255 266 279 278 274 273 273 277 282 287 289 291 294 296 298 302 304 303 302 303
355 1 62 134 104 94 97 101 113 102 62 46 106 178 171 177 192 210 180 159 165 223 179 209 248 208 177 171 147 178 212 179 127 250 181 146 148 205 193 191 164 144 102 123 44 52 144 251 194 106 313 287 292 337 323 224 239 261 259 242 215 213 218 222 237 225 212 246 260 267 279 278 271 269 270 274 280 285 286 288 293 298 302 306 306 305 305 305
334 322 303 139 92 78 94 97 93 91 54 231 189 186 186 202 199 181 184 203 189 175 189 195 178 125 101 161 196 235 228 172 94 249 178 162 164 189 198 185 157 144 135 166 158 109 145 242 31 67 348 285 298 353 323 290 267 265 272 258 210 201 211 216 224 209 199 225 250 272 272 260 265 277 280 274 276 279 279 283 292 302 308 309 306 306 308 308
328 317 284 155 30 346 157 105 74 91 224 225 184 179 199 229 197 169 170 246 215 198 212 193 162 121 94 194 225 238 213 165 83 104 154 154 129 134 133 147 151 146 158 161 134 112 145 142 131 78 325 275 284 327 320 325 324 279 269 247 184 187 208 233 240 220 205 204 207 227 237 245 271 305 299 282 282 281 281 284 293 300 305 307 306 306 310 312